"Pseudo-MPEC" for ZNB96BA

Created 2018 Jul 17 22:18:23 UT using Find_Orb

Click here for an explanation of pseudo-MPECs

 
 Astrometry: 
     ZNB96BA  C2018 07 10.17753 14 00 52.16 +18 15 02.6          19.9 GUNEOCPG96
     ZNB96BA  C2018 07 10.18328 14 00 52.64 +18 15 00.3          20.6 GUNEOCPG96
     ZNB96BA  C2018 07 10.18906 14 00 53.08 +18 14 58.6          20.6 GUNEOCPG96
     ZNB96BA  C2018 07 10.19481 14 00 53.51 +18 14 55.8          20.7 GUNEOCPG96
     ZNB96BA KC2018 07 11Z`Astrometry$jXk4EeBO[Y:k`wXZ(,FxMNOaam3u-k?eG1TlPPvJ04
     ZNB96BA KC2018 07 11ec6VJ34^ot+H3Q=NEredacted;*IRuirBTi*Vep@UDio(8Cg`y8=J04
     ZNB96BA KC2018 07 11N7!Riwu;sOub3R']L]p3xVf%V@qMo.N!Q%vmy%h;ltwPFZn:[oXkJ04
     ZNB96BA KC2018 07 1757!U.N$pW%H\!o5Z7QM2N#XbKO`D4Q3Sseehh[G_8L-u(V0bm;5%L01
     ZNB96BA KC2018 07 17Cl8+qgaWePcxV@xwg]6:Devu^n7NM4te@F,[#q1foA\6tZWNEOCPL01

Station data:
(G96) Mt. Lemmon Survey  (N32.442754 W110.788720)  US/Arizona.  Observers B.
   M. Africano, E. J. Christensen, D. C. Fuls, A. R. Gibbs, A. D. Grauer, J.
   A. Johnson, R. A. Kowalski, S. M. Larson, G. J. Leonard, R. L. Seaman, F.
   C. Shelly. 1.5-m reflector + 10K CCD.
(J04) ESA Optical Ground Station, Tenerife  (N28.300924 W16.511830)  Canary
   Islands (Spain).  Observer D. Abreu. Measurers M. Micheli, D. Koschny, E.
   Schwab, M. Busch, A. Knöfel. 1.0-m f/4.4 reflector + CCD.
(L01) Višnjan Observatory, Tičan  (N45.290900 E13.749300)  Croatia.  Observer
   K. Korlević. 1.0-m f/2.9 reflector + CCD.

Orbital elements:  ZNB96BA
   Perihelion 2018 Aug 19.644440 +/- 2.84 TT = 15:27:59 (JD 2458350.144440)
Epoch 2018 Jul 17.0 TT = JDT 2458316.5                        AutoNEOCP
M 353.39640 +/- 3.5                 (J2000 ecliptic)
n   0.19627586 +/- 0.0956           Peri.   70.45509 +/- 0.57
a   2.93241058 +/- 0.951            Node   188.93937 +/- 3.5
e   0.3710946 +/- 0.18              Incl.   29.49532 +/- 0.051
P   5.02                   H 17.5   G  0.15   U 11.2  
q 1.84420857 +/- 0.0847    Q 4.02061259 +/- 2.16
From 9 observations 2018 July 10-17; mean residual 0".26
Residuals in arcseconds: 
180710 G96  .72-  .16-    180710 G96  .36+  .11-    180711 J04  .24+  .01+    
180710 G96  .08+  .18-    180711 J04  .10-  .30+    180717 L01  .04-  .01-    
180710 G96  .28+  .41+    180711 J04  .13-  .27-    180717 L01  .04+  .00     

Ephemerides (geocentric):
Date (UTC) HH   RA              Dec         delta   r     elong  mag " sig PA
---- -- -- --  -------------   -----------  ------ ------ -----  --- ---- ---
2018 07 17 22  14 11 13.333   +17 19 12.21  1.5764 1.8614  89.0 21.2  3.5 117
2018 07 17 23  14 11 16.867   +17 18 52.51  1.5767 1.8613  89.0 21.2  3.6 117
2018 07 18 00  14 11 20.403   +17 18 32.79  1.5770 1.8613  89.0 21.2  3.6 117
2018 07 18 01  14 11 23.941   +17 18 13.05  1.5773 1.8612  89.0 21.2  3.7 117
2018 07 18 02  14 11 27.480   +17 17 53.30  1.5776 1.8612  89.0 21.2  3.7 117
2018 07 18 03  14 11 31.022   +17 17 33.53  1.5779 1.8611  88.9 21.2  3.8 117
2018 07 18 04  14 11 34.566   +17 17 13.75  1.5782 1.8611  88.9 21.2  3.8 116
2018 07 18 05  14 11 38.111   +17 16 53.95  1.5785 1.8611  88.9 21.2  3.9 116
2018 07 18 06  14 11 41.659   +17 16 34.13  1.5788 1.8610  88.9 21.2  3.9 116
2018 07 18 07  14 11 45.209   +17 16 14.30  1.5791 1.8610  88.9 21.2  4.0 116
2018 07 18 08  14 11 48.760   +17 15 54.45  1.5794 1.8609  88.9 21.2  4.0 116
2018 07 18 09  14 11 52.313   +17 15 34.58  1.5797 1.8609  88.8 21.2  4.0 116
2018 07 18 10  14 11 55.869   +17 15 14.70  1.5800 1.8608  88.8 21.2  4.1 116
2018 07 18 11  14 11 59.426   +17 14 54.80  1.5803 1.8608  88.8 21.2  4.1 116
2018 07 18 12  14 12 02.986   +17 14 34.88  1.5806 1.8608  88.8 21.2  4.2 115
2018 07 18 13  14 12 06.547   +17 14 14.95  1.5809 1.8607  88.8 21.2  4.2 115
2018 07 18 14  14 12 10.110   +17 13 55.00  1.5813 1.8607  88.7 21.2  4.3 115
2018 07 18 15  14 12 13.675   +17 13 35.04  1.5816 1.8606  88.7 21.2  4.3 115
2018 07 18 16  14 12 17.242   +17 13 15.06  1.5819 1.8606  88.7 21.2  4.4 115
2018 07 18 17  14 12 20.811   +17 12 55.07  1.5822 1.8605  88.7 21.2  4.4 115
2018 07 18 18  14 12 24.382   +17 12 35.05  1.5825 1.8605  88.7 21.2  4.5 115
2018 07 18 19  14 12 27.955   +17 12 15.03  1.5828 1.8605  88.6 21.2  4.5 115
2018 07 18 20  14 12 31.530   +17 11 54.98  1.5831 1.8604  88.6 21.2  4.6 115
2018 07 18 21  14 12 35.107   +17 11 34.92  1.5834 1.8604  88.6 21.2  4.7 115
2018 07 18 22  14 12 38.685   +17 11 14.85  1.5837 1.8603  88.6 21.2  4.7 115
2018 07 18 23  14 12 42.266   +17 10 54.75  1.5840 1.8603  88.6 21.2  4.8 114
2018 07 19 00  14 12 45.848   +17 10 34.65  1.5843 1.8602  88.5 21.2  4.8 114
2018 07 19 01  14 12 49.433   +17 10 14.52  1.5846 1.8602  88.5 21.2  4.9 114
2018 07 19 02  14 12 53.019   +17 09 54.38  1.5849 1.8602  88.5 21.2  4.9 114
2018 07 19 03  14 12 56.608   +17 09 34.23  1.5852 1.8601  88.5 21.2  5.0 114
2018 07 19 04  14 13 00.198   +17 09 14.06  1.5855 1.8601  88.5 21.2  5.0 114
2018 07 19 05  14 13 03.790   +17 08 53.87  1.5858 1.8600  88.4 21.2  5.1 114
2018 07 19 06  14 13 07.384   +17 08 33.67  1.5861 1.8600  88.4 21.2  5.1 114
2018 07 19 07  14 13 10.980   +17 08 13.45  1.5864 1.8600  88.4 21.2  5.2 114
2018 07 19 08  14 13 14.578   +17 07 53.21  1.5867 1.8599  88.4 21.2  5.3 114
2018 07 19 09  14 13 18.178   +17 07 32.96  1.5870 1.8599  88.4 21.2  5.3 114
2018 07 19 10  14 13 21.780   +17 07 12.70  1.5873 1.8598  88.3 21.2  5.4 114
2018 07 19 11  14 13 25.384   +17 06 52.41  1.5877 1.8598  88.3 21.2  5.4 114
2018 07 19 12  14 13 28.989   +17 06 32.12  1.5880 1.8598  88.3 21.2  5.5 113
2018 07 19 13  14 13 32.597   +17 06 11.80  1.5883 1.8597  88.3 21.2  5.5 113
2018 07 19 14  14 13 36.206   +17 05 51.47  1.5886 1.8597  88.3 21.2  5.6 113
2018 07 19 15  14 13 39.818   +17 05 31.13  1.5889 1.8596  88.2 21.2  5.7 113
2018 07 19 16  14 13 43.431   +17 05 10.77  1.5892 1.8596  88.2 21.2  5.7 113
2018 07 19 17  14 13 47.046   +17 04 50.39  1.5895 1.8595  88.2 21.2  5.8 113
2018 07 19 18  14 13 50.663   +17 04 30.00  1.5898 1.8595  88.2 21.2  5.8 113
2018 07 19 19  14 13 54.282   +17 04 09.59  1.5901 1.8595  88.2 21.2  5.9 113
2018 07 19 20  14 13 57.903   +17 03 49.17  1.5904 1.8594  88.1 21.2  6.0 113
2018 07 19 21  14 14 01.526   +17 03 28.73  1.5907 1.8594  88.1 21.2  6.0 113